GFSWCAN_925_temp_021.txt.gz
Temp
6 6 6 5 5 5 4 4 4 4 4 4 4 5 4 4 4 6 13 10 13 19 21 20 21 21 23 23 24 25 24 25 26 25 27 28 29 30 30 31 30 29 28 29 29 29 29 33 33 32 28 30 30 31
6 6 6 5 5 5 4 4 4 4 4 5 4 4 4 4 5 6 14 12 12 14 19 17 17 18 19 20 21 23 24 24 26 26 27 29 29 29 28 28 30 28 31 30 31 31 29 30 29 28 28 28 29 29
5 6 5 5 5 5 5 5 4 4 4 4 4 4 4 4 5 5 9 11 13 17 20 20 20 19 18 18 19 21 24 22 23 22 25 28 27 29 28 28 29 29 31 29 29 31 29 28 29 27 27 27 28 29
5 5 5 5 5 5 5 4 4 4 4 4 4 4 4 4 4 5 9 11 12 16 19 20 18 18 18 18 18 19 19 20 21 24 24 26 26 28 28 28 28 29 27 29 29 28 29 28 26 26 26 27 28 29
5 5 5 5 5 5 5 4 4 4 4 4 4 4 4 4 5 5 9 11 11 13 18 21 20 19 18 17 18 18 19 19 22 23 24 25 27 25 26 28 28 29 27 25 26 26 25 25 26 26 26 26 26 26
5 5 5 5 5 5 5 4 4 4 4 4 4 4 4 5 6 7 15 12 12 12 16 20 20 20 19 18 19 19 20 20 21 23 24 25 24 24 24 26 27 27 26 26 25 25 25 26 25 26 26 26 26 24
4 4 5 5 5 5 4 4 4 4 4 4 4 4 5 5 6 10 11 9 9 11 16 20 21 21 20 20 20 21 20 22 22 23 23 24 25 23 23 24 24 23 25 25 24 25 25 26 26 26 26 25 24 23
4 4 4 4 4 4 4 4 4 4 4 4 5 5 6 7 7 10 10 8 9 12 16 19 19 21 20 21 21 23 22 22 22 22 24 24 24 23 22 24 25 24 24 23 25 25 25 26 26 26 25 25 25 22
4 4 4 4 4 4 4 4 4 4 4 5 6 7 7 8 10 11 9 9 9 12 17 19 20 18 22 20 20 21 23 22 24 22 23 23 23 22 23 23 24 24 23 23 23 24 25 25 23 24 25 25 25 23
4 4 4 4 4 4 4 4 4 5 5 6 6 10 11 11 9 9 9 12 13 15 16 18 22 19 22 21 21 20 21 21 20 21 24 23 23 24 24 24 23 22 22 23 22 23 24 24 23 23 23 23 25 24
4 4 4 4 4 4 4 4 5 5 6 8 12 11 11 9 11 12 13 14 14 15 18 20 21 18 22 19 19 21 18 20 19 21 22 22 23 24 24 23 22 22 22 22 22 22 23 24 21 22 21 22 22 23
4 4 4 4 4 4 4 4 5 6 9 8 8 11 12 12 12 13 14 16 16 16 19 19 20 21 18 21 18 19 20 21 20 23 21 22 17 20 20 19 18 21 22 22 21 22 22 23 23 24 23 24 23 23
4 4 4 4 4 4 4 4 5 5 7 9 11 13 13 12 10 13 15 17 16 18 17 18 17 20 20 20 19 19 19 21 23 20 21 18 18 18 18 18 18 18 19 21 21 21 21 22 22 23 23 24 24 21
4 4 4 4 4 4 4 4 5 5 6 13 13 8 13 14 16 18 17 16 18 17 18 18 18 19 19 18 19 18 21 21 18 19 18 18 17 17 18 18 18 17 17 18 20 20 20 21 22 22 23 24 24 23
4 4 4 4 4 4 4 5 5 6 10 13 15 11 15 17 18 16 17 17 17 18 17 18 18 18 18 18 19 19 18 18 18 16 17 17 17 16 16 17 17 16 16 16 17 19 19 19 21 21 22 23 24 24
4 4 5 4 4 4 5 5 6 9 12 14 14 15 17 16 17 18 18 16 18 18 18 18 17 17 17 18 18 18 19 19 17 17 18 18 16 16 16 16 14 12 13 13 14 16 16 17 19 20 22 23 23 22
6 7 5 4 4 4 5 6 10 12 13 13 15 16 16 16 17 17 16 16 18 17 16 16 15 17 18 17 17 20 18 17 17 17 17 16 14 14 14 12 11 12 12 13 13 14 15 16 17 18 18 18 19 18
6 5 5 5 5 5 7 8 11 13 12 14 14 15 16 16 16 15 16 17 18 16 16 16 17 16 16 17 18 18 17 17 17 16 16 13 10 10 10 11 10 10 11 12 13 14 13 14 14 14 13 12 12 11
7 5 5 6 6 8 12 12 12 13 14 15 15 15 15 15 16 16 18 16 16 16 17 17 15 16 16 17 16 17 17 17 15 12 10 9 10 10 10 11 11 12 12 12 12 13 13 13 13 13 12 12 11 10
6 6 5 6 6 9 13 13 12 13 14 15 15 16 15 15 15 17 16 16 15 15 14 15 17 17 17 16 16 16 15 12 9 9 10 10 10 10 10 11 11 11 11 12 12 13 13 12 12 12 11 11 11 11
7 5 5 6 9 11 14 14 15 14 14 15 15 16 15 16 15 14 13 13 13 13 14 16 16 14 14 14 12 9 8 8 9 9 10 10 10 10 10 10 11 11 11 11 11 11 11 11 10 11 11 10 10 9
8 7 9 9 11 12 13 13 13 14 15 14 15 15 15 14 12 9 8 9 10 13 13 13 12 12 12 10 8 8 9 9 9 9 10 10 10 10 10 10 10 10 10 10 10 10 10 10 10 10 10 10 10 10
8 8 11 12 12 10 10 13 13 14 14 13 13 11 10 9 8 8 8 8 8 8 8 8 7 7 7 8 9 9 9 10 10 10 10 10 10 10 10 10 11 12 11 11 10 10 9 10 9 10 11 11 11 11
9 11 12 13 12 10 13 11 12 10 9 9 9 9 9 8 7 7 7 7 7 7 8 8 8 10 10 10 10 10 9 9 9 9 10 11 12 12 12 12 12 12 12 12 12 11 11 11 12 14 14 15 16 16
9 8 9 5 12 12 10 10 8 7 8 9 9 8 8 7 7 6 7 8 8 9 10 10 10 10 10 10 10 10 10 11 11 11 11 13 14 13 13 13 14 13 13 12 13 13 13 15 16 17 17 17 16 16
7 10 8 10 11 9 9 8 7 8 9 9 9 9 8 8 8 7 8 8 8 9 10 10 10 10 10 10 11 11 12 14 16 15 14 14 16 18 17 16 17 16 15 15 15 15 15 16 16 16 16 15 15 16
8 8 8 8 8 6 7 7 8 8 10 10 9 9 10 9 8 9 8 8 9 9 9 10 11 11 12 13 13 13 14 15 16 16 16 17 17 17 17 17 17 17 17 17 17 17 16 16 16 16 16 16 16 16
6 6 7 6 6 7 8 9 10 11 12 13 11 11 10 8 9 8 8 8 9 10 11 11 11 13 15 15 16 16 16 16 16 17 17 17 16 16 16 15 15 15 15 14 16 16 16 16 16 16 16 16 15 15
7 6 7 8 9 9 11 11 12 13 14 14 13 11 10 10 9 8 9 10 10 11 12 12 12 14 16 16 17 18 19 19 18 18 18 18 18 17 16 16 16 16 15 14 14 13 14 14 15 15 15 15 14 14
9 8 9 10 12 12 14 15 14 15 15 14 13 12 12 12 11 11 11 13 14 15 16 16 16 16 18 18 18 18 18 19 19 19 19 18 18 17 17 17 17 16 16 16 15 14 13 14 13 14 14 14 14 14
13 14 13 14 14 16 16 17 16 16 16 16 16 16 15 16 16 17 17 17 17 18 18 18 18 19 19 18 18 18 18 17 17 17 17 17 17 17 16 16 16 16 16 16 16 16 15 15 15 15 14 14 13 13
15 14 15 14 14 17 18 18 17 17 17 18 18 19 18 18 17 17 17 17 18 18 17 18 18 18 18 17 17 17 17 17 16 16 16 16 16 16 16 16 16 15 15 15 15 15 15 14 15 14 13 12 12 11
16 16 17 17 17 16 18 18 18 18 19 18 19 19 19 19 17 18 17 18 18 18 19 18 18 17 17 17 16 16 15 14 14 13 13 13 14 14 14 15 15 14 15 15 15 14 14 13 13 12 12 12 11 11

GFSWCAN_925_temp_024.txt.gz
Temp
6 6 6 6 5 5 5 5 5 5 5 4 4 4 5 5 6 7 12 13 15 19 22 22 23 22 23 25 25 24 26 26 26 24 25 27 29 30 30 31 31 30 29 29 29 28 28 34 33 30 27 30 31 31
6 6 6 6 5 5 5 5 5 5 5 4 4 4 4 4 6 8 14 15 15 16 20 19 20 20 21 21 21 24 25 25 26 26 27 28 28 29 30 29 31 29 30 30 30 30 30 30 28 28 28 29 29 30
6 6 6 6 5 5 5 5 5 5 4 4 4 4 4 4 5 5 9 12 15 18 20 21 22 21 20 21 21 21 24 22 24 23 24 26 27 29 28 29 30 31 31 30 30 31 29 29 28 28 28 27 29 31
6 6 5 5 5 5 5 5 5 4 4 4 4 4 4 4 4 6 9 13 14 17 19 22 21 20 20 21 21 21 21 21 21 23 24 25 26 29 28 27 27 26 28 29 29 28 23 25 27 27 28 28 29 28
6 5 5 5 5 5 5 5 5 5 4 4 4 4 5 5 6 5 9 13 14 15 17 20 22 22 21 20 20 21 21 20 23 23 24 24 26 27 28 28 28 27 25 22 23 24 25 25 26 27 27 27 27 26
5 5 5 5 5 5 5 5 5 5 4 4 4 5 5 6 6 8 16 15 13 14 16 20 22 22 21 20 20 20 21 21 22 23 24 26 27 25 25 26 28 28 27 26 22 23 20 26 27 27 27 27 26 25
5 5 5 5 5 5 5 5 5 4 4 5 5 5 6 6 5 11 11 11 10 11 16 20 22 22 21 21 21 22 21 22 22 23 23 24 26 25 25 24 24 25 24 24 25 26 26 26 25 26 27 27 25 23
5 4 4 4 4 5 4 4 4 5 5 5 5 6 6 7 7 10 10 9 10 13 17 19 20 21 22 22 22 23 23 22 22 23 24 24 25 24 23 25 26 25 25 24 25 26 26 27 26 20 20 27 23 24
5 4 4 4 4 4 4 4 4 5 5 5 6 7 6 8 12 13 11 10 10 13 16 20 18 17 23 22 22 23 24 22 24 23 23 24 24 23 24 24 25 25 24 24 24 25 24 25 25 25 26 25 25 23
4 4 4 4 4 4 4 4 5 5 5 6 6 9 11 12 11 11 11 14 14 17 17 18 21 16 21 23 22 21 22 22 21 24 25 24 24 25 26 25 25 24 23 23 23 23 24 24 24 23 25 25 24 20
5 4 4 4 4 4 4 5 5 5 6 8 11 12 12 11 12 15 13 15 16 17 19 21 21 22 23 20 18 17 19 21 19 22 22 21 23 23 25 23 23 23 23 23 23 23 23 24 22 21 24 24 24 21
5 4 4 4 4 4 5 5 5 5 8 8 8 11 12 14 13 13 14 17 18 18 20 21 21 22 22 21 18 16 19 18 19 22 21 22 20 21 22 21 21 21 21 21 21 23 23 23 23 23 22 23 24 23
4 4 4 4 4 4 5 5 5 6 7 10 11 13 13 14 10 14 15 18 18 19 20 20 19 21 21 21 19 18 18 20 24 20 22 19 18 20 20 21 21 20 19 19 19 19 20 23 23 23 23 23 24 23
5 4 4 4 4 4 5 5 5 6 6 11 12 8 13 15 17 18 18 18 19 18 18 18 18 18 18 18 19 18 21 22 20 20 19 17 18 18 19 20 20 19 19 19 19 19 19 19 22 22 22 23 23 23
4 5 5 4 4 5 5 5 5 6 9 12 16 11 16 18 19 19 19 19 19 18 18 19 19 19 19 18 19 19 19 19 20 18 17 17 18 18 18 18 17 18 18 18 17 17 18 18 19 21 21 22 23 23
4 4 5 5 4 5 5 5 6 8 12 14 16 16 18 18 18 19 19 17 18 18 19 20 18 18 18 18 18 19 20 18 16 16 17 17 17 17 16 16 16 16 15 15 15 15 16 17 18 19 20 21 20 23
5 7 5 5 5 5 5 6 10 12 13 14 16 17 17 18 18 17 17 18 18 18 17 18 16 17 19 18 18 20 17 17 18 18 17 16 14 14 13 13 13 13 13 13 13 13 14 16 17 17 17 15 17 18
7 6 6 5 5 6 7 7 12 13 13 15 15 17 18 18 15 15 16 16 16 17 17 16 17 17 17 17 18 18 17 16 17 16 16 14 11 10 10 11 12 11 11 12 13 14 14 15 16 13 13 12 12 12
7 5 6 6 7 9 11 12 13 14 16 16 17 17 16 16 16 17 17 17 17 18 18 17 16 17 17 18 18 17 16 16 15 15 14 11 10 10 10 11 12 12 12 12 12 13 13 13 13 12 12 12 12 11
7 6 6 6 6 9 13 15 14 14 15 15 17 14 14 15 17 17 16 16 17 17 15 16 18 15 16 14 14 14 15 14 11 10 10 10 10 10 11 11 11 11 12 12 12 12 12 11 11 11 11 11 11 10
7 6 6 6 9 10 13 15 15 16 15 15 17 16 16 17 17 16 15 15 15 14 14 16 14 14 14 14 13 12 11 9 10 10 10 10 10 10 10 10 11 11 11 11 11 11 11 11 12 12 12 11 10 10
9 8 10 9 11 14 14 15 15 16 16 16 16 16 16 14 14 13 13 12 13 15 13 13 14 13 13 13 10 9 9 10 10 10 10 10 10 10 10 10 10 11 11 10 10 10 10 10 10 10 10 10 10 10
9 9 11 13 13 11 10 15 14 14 14 14 15 14 13 12 9 9 9 9 9 8 8 8 8 8 8 8 9 10 10 10 10 10 11 10 10 10 11 12 11 11 10 10 9 9 9 10 10 10 10 10 10 11
10 12 12 13 13 10 15 13 14 13 12 12 12 11 10 9 8 8 7 7 8 8 8 8 8 9 9 10 10 10 10 10 10 11 11 11 11 11 13 13 13 12 11 10 10 11 11 12 12 12 12 14 15 15
10 10 10 5 13 13 12 12 10 8 9 9 10 10 9 8 8 7 7 8 8 8 10 10 10 10 10 10 10 10 10 11 11 12 13 13 13 14 13 12 12 13 12 12 13 13 14 15 15 17 17 17 17 17
6 11 9 11 11 11 11 9 8 8 9 10 9 9 8 8 8 8 9 8 8 9 10 10 10 10 10 11 10 11 11 12 13 13 13 14 15 16 14 14 15 13 14 14 16 17 18 17 17 17 17 16 17 17
9 9 9 11 10 9 8 7 8 8 9 9 9 9 9 9 8 9 8 8 9 10 10 11 11 11 11 12 13 14 13 14 16 17 17 17 18 18 18 18 18 17 16 17 18 17 17 17 17 17 17 17 17 17
7 7 8 7 7 7 8 9 9 10 11 12 10 11 10 9 9 9 8 9 9 10 11 11 12 13 13 14 15 16 16 17 18 18 18 18 17 17 17 16 16 16 16 16 17 17 17 18 18 17 17 17 16 16
6 6 7 8 9 9 10 13 12 14 15 14 12 10 10 10 9 9 9 10 11 11 14 15 15 16 17 17 18 18 19 20 19 19 19 19 18 17 17 17 17 17 16 15 15 15 15 15 15 16 16 16 15 15
9 9 9 12 13 13 14 14 14 15 15 14 12 11 12 12 11 11 11 11 13 14 15 16 17 19 20 20 20 20 20 20 20 20 20 19 19 18 18 18 18 17 17 17 16 15 15 15 15 15 16 16 16 15
13 12 13 15 14 15 15 15 14 14 14 12 13 15 15 16 15 14 15 17 18 18 18 19 20 20 20 19 20 20 19 18 18 18 19 19 18 18 18 17 17 17 17 17 17 17 16 16 17 16 16 15 14 14
14 15 14 15 16 17 17 16 16 16 15 15 15 17 19 19 18 19 19 19 20 20 19 20 20 20 19 19 18 18 18 18 17 15 15 17 17 17 17 18 17 17 17 17 17 17 16 16 16 16 16 14 14 13
14 15 16 16 16 16 17 17 17 17 18 18 19 20 20 19 18 19 19 19 20 19 20 19 19 19 18 18 17 16 15 14 14 15 14 14 14 14 15 16 16 16 16 16 16 16 15 15 15 14 14 14 13 13

GFSWCAN_925_temp_030.txt.gz
Temp
7 6 6 6 6 6 6 6 6 5 5 5 5 5 4 5 8 9 12 11 11 8 9 15 16 15 15 15 16 17 18 17 18 19 19 19 20 21 23 23 24 23 21 20 19 22 23 24 25 27 21 20 20 21
7 6 6 6 6 6 6 6 6 6 5 5 5 5 5 6 7 8 10 12 11 10 10 15 16 17 17 19 15 14 15 15 16 18 17 18 20 20 19 21 21 22 22 21 21 20 19 18 18 17 20 20 20 20
6 6 6 6 6 6 6 6 6 5 5 5 5 5 5 6 6 6 7 9 10 8 10 12 14 20 20 20 21 15 14 16 16 15 15 17 20 19 19 19 21 21 21 20 20 19 18 18 19 20 19 20 20 20
6 6 6 6 6 6 6 6 5 5 5 5 5 5 6 6 6 6 7 9 8 8 9 12 18 19 21 21 20 21 18 17 16 14 16 16 18 18 18 19 19 20 20 20 18 18 18 18 19 19 20 20 20 20
6 6 6 6 6 6 5 5 5 5 5 5 5 5 6 6 7 8 9 10 9 8 9 9 14 20 20 20 20 20 19 14 14 15 15 17 16 17 16 17 17 18 20 18 18 18 18 19 18 19 19 21 20 20
6 6 6 6 6 5 5 5 5 5 5 5 5 6 6 6 7 9 7 10 11 10 9 9 14 18 19 20 19 19 16 13 13 13 14 15 17 17 17 17 19 18 18 18 19 19 19 20 19 19 19 20 19 18
5 5 6 5 5 5 5 5 5 5 5 5 6 6 6 6 6 6 8 11 11 10 8 10 11 15 19 18 15 14 16 13 13 13 14 15 16 16 15 18 19 19 20 21 21 20 20 21 20 20 19 19 20 19
5 6 5 5 5 5 5 5 5 5 5 5 6 7 7 7 8 8 11 11 11 9 9 10 12 16 18 15 14 12 14 12 13 14 13 15 14 15 16 17 21 22 21 20 20 19 20 19 19 19 19 19 18 17
5 5 5 5 5 5 5 5 5 5 5 5 7 8 8 8 8 11 11 11 10 10 9 10 12 13 13 14 13 14 13 14 13 15 14 14 14 16 16 18 20 19 20 18 18 18 19 19 19 18 18 18 18 17
5 5 5 5 5 5 5 5 5 5 5 6 7 7 8 11 11 11 10 8 8 8 7 9 11 13 12 13 14 14 12 14 15 14 14 15 14 15 15 16 16 17 17 18 19 20 19 18 17 18 19 17 18 17
5 5 5 5 5 5 5 5 5 5 6 6 7 8 10 11 11 9 10 10 10 11 9 9 11 12 12 13 13 12 13 13 15 15 17 14 14 16 15 15 14 15 15 15 15 15 15 15 15 15 16 18 19 20
5 5 5 5 5 5 5 5 4 5 6 6 6 7 9 9 8 10 10 11 12 13 13 13 14 12 13 12 12 12 14 13 15 14 15 15 13 13 14 15 15 15 16 16 17 16 16 17 17 16 16 16 17 19
5 5 5 5 5 5 5 5 5 5 6 7 6 7 8 7 8 10 11 12 12 13 14 13 13 14 14 12 12 12 14 13 14 14 16 13 12 13 13 13 13 15 16 15 16 16 17 16 16 16 16 17 17 17
5 5 5 5 5 5 5 5 5 6 6 6 9 5 8 8 10 11 11 12 12 13 13 12 13 13 12 14 12 15 14 15 14 14 14 12 13 12 13 13 12 12 13 13 14 14 15 15 15 15 15 16 16 16
5 5 5 4 5 5 5 5 5 6 6 8 9 6 9 10 11 11 11 11 11 12 12 13 14 12 13 15 13 13 15 16 14 13 13 12 11 11 11 11 11 11 11 11 12 13 13 13 13 14 15 15 15 16
5 5 4 5 5 5 5 5 6 6 8 9 8 10 11 11 11 11 12 12 10 11 13 14 16 14 15 14 16 16 16 15 13 12 11 11 11 10 10 9 10 10 11 11 11 12 12 12 12 13 14 14 14 14
4 4 4 5 5 5 5 6 6 7 9 11 10 12 10 10 11 11 10 10 11 11 12 12 15 16 13 15 16 13 12 12 13 13 12 10 10 9 9 10 10 10 10 11 11 12 12 13 13 12 11 13 13 13
5 5 5 5 5 5 5 5 7 9 10 9 10 10 10 10 10 10 10 11 12 11 13 14 12 14 14 15 13 12 13 12 11 10 10 9 10 10 10 10 10 10 10 11 11 11 12 12 12 12 11 11 11 11
6 6 5 5 6 6 6 7 8 8 9 9 10 11 10 10 10 11 11 12 13 12 11 11 14 12 11 10 11 11 11 10 9 9 9 11 10 10 10 10 10 11 11 12 12 12 12 12 12 12 11 11 10 10
6 6 6 6 6 6 8 8 11 9 9 10 10 10 10 10 10 10 10 9 10 10 11 12 11 10 9 9 9 9 9 9 9 9 9 9 10 10 10 10 10 11 11 11 11 11 11 11 11 11 10 10 10 10
5 4 5 5 6 7 7 8 9 10 9 9 10 10 10 10 12 10 9 8 9 10 10 9 8 8 10 11 10 10 9 9 9 9 10 9 10 10 10 10 10 10 10 10 10 10 10 10 10 10 10 9 9 9
8 7 7 6 6 9 7 10 8 10 11 12 11 11 11 10 8 7 6 8 8 8 7 7 7 7 8 8 9 9 10 9 9 10 10 10 10 10 10 10 10 10 10 10 10 10 10 10 10 10 10 10 10 9
8 8 8 8 8 7 9 12 10 11 11 10 9 11 9 8 7 6 8 8 7 7 8 7 8 8 8 9 9 10 9 10 10 10 10 11 10 10 10 10 10 10 10 10 10 10 10 10 10 10 10 10 10 10
9 10 9 9 8 7 10 11 9 8 8 9 9 10 9 9 6 7 7 7 7 8 8 8 8 8 9 9 9 9 10 10 10 11 11 11 11 11 11 10 10 10 10 10 10 10 11 11 11 12 12 12 12 12
8 8 7 4 8 11 11 9 8 7 8 9 9 8 8 7 7 7 6 7 8 8 8 9 9 9 9 9 9 10 10 11 10 11 12 12 12 11 11 11 11 12 12 12 12 12 12 13 12 12 12 12 12 12
5 9 8 10 8 10 10 9 8 8 8 9 9 8 8 8 8 7 8 8 8 8 9 9 9 9 9 10 9 10 11 11 11 12 13 13 13 12 11 11 11 13 13 13 13 13 13 13 13 13 14 14 13 13
6 9 8 8 8 8 7 7 7 8 9 9 9 8 9 9 8 8 8 8 8 9 10 10 10 10 10 10 11 12 12 12 13 14 14 14 15 14 14 14 13 14 15 15 15 15 16 16 16 15 15 15 14 14
6 6 7 7 7 7 8 8 8 9 9 10 10 10 10 9 10 9 8 9 10 10 10 11 11 11 12 13 13 13 14 14 14 15 15 15 15 15 15 15 15 16 16 16 16 17 17 17 16 15 15 15 15 14
5 6 7 7 8 8 8 9 10 10 10 10 10 10 10 9 9 9 10 10 10 11 11 12 12 13 13 13 14 14 14 15 15 13 13 12 14 15 16 16 16 16 16 16 16 16 16 16 16 16 16 15 15 14
8 7 8 9 9 10 10 10 11 11 10 10 10 9 10 10 10 11 10 10 10 11 12 13 13 13 13 13 15 16 15 16 17 17 12 12 15 17 16 16 16 16 17 17 16 16 16 16 16 15 15 15 14 14
10 9 9 10 10 10 10 10 11 12 11 11 12 12 11 11 12 12 12 12 12 12 12 13 14 15 15 16 15 14 14 15 17 17 16 16 16 16 17 17 17 17 16 16 16 16 16 16 16 15 14 14 14 14
11 11 12 11 10 10 10 10 10 11 12 12 12 13 13 13 12 13 15 14 12 12 13 13 14 15 16 18 16 16 16 16 17 16 17 16 16 16 16 16 16 16 16 16 17 16 15 15 15 14 14 14 13 13
13 14 14 12 12 12 12 11 12 12 12 13 13 13 13 13 14 15 18 18 17 16 16 17 17 16 17 17 16 16 16 16 16 16 16 16 15 16 16 16 16 16 16 16 15 15 15 14 14 14 13 13 13 13

GFSWCAN_925_temp_033.txt.gz
Temp
7 7 7 6 6 6 6 6 6 6 6 6 5 4 5 6 7 8 11 9 9 6 8 13 16 16 15 13 14 15 18 18 17 18 19 18 20 20 22 22 24 22 20 19 17 20 23 21 23 27 21 20 21 20
7 6 6 6 6 6 6 6 6 6 6 6 5 5 5 6 7 7 9 10 9 7 9 13 14 15 15 17 14 12 15 14 15 17 16 16 19 17 18 20 19 22 20 19 19 19 18 17 18 18 18 20 20 20
7 6 6 6 6 6 6 6 6 6 5 6 5 5 5 6 6 5 6 8 8 5 8 11 15 17 18 17 18 15 13 14 16 14 14 15 18 16 17 18 20 20 19 17 18 18 18 17 18 19 19 20 20 20
7 6 6 6 6 6 6 6 6 6 5 5 5 5 6 6 7 6 6 8 6 5 7 11 15 17 19 19 19 19 17 15 14 13 14 15 17 16 17 17 18 18 19 17 17 17 17 18 18 18 20 20 19 19
6 6 6 6 6 6 6 6 6 5 5 5 5 6 6 6 7 8 8 8 8 7 8 8 12 17 19 19 19 19 16 12 13 15 14 16 14 16 15 15 17 17 19 18 17 17 17 18 18 19 20 20 19 19
6 6 6 6 6 6 6 5 5 5 5 5 5 6 6 6 7 9 7 9 8 8 7 9 11 13 18 19 18 16 14 10 10 13 14 13 13 15 16 16 18 17 17 16 18 17 16 19 18 18 19 19 19 19
6 6 6 6 6 6 6 5 5 5 5 5 6 6 6 6 6 6 7 9 10 8 7 9 10 13 17 16 13 12 13 10 11 11 13 13 15 13 13 16 18 19 18 19 18 18 18 18 18 18 19 19 19 18
6 6 6 6 6 5 5 5 5 5 5 5 6 6 7 7 7 8 11 11 10 9 7 9 11 13 15 13 14 10 12 10 12 12 11 13 12 12 15 15 17 18 19 18 18 18 17 17 18 18 18 18 18 17
6 6 6 6 5 5 5 5 5 5 5 5 6 7 8 8 8 10 10 10 10 9 8 8 10 13 12 11 11 12 10 13 10 13 12 13 12 14 15 16 18 18 18 17 17 17 17 16 17 17 18 18 18 17
5 5 6 6 5 5 5 5 5 5 5 6 7 7 6 9 10 10 10 7 7 6 6 8 8 12 12 11 12 12 10 12 14 13 12 13 13 12 13 12 12 14 16 15 17 17 16 15 15 17 18 17 16 16
5 6 6 6 5 5 5 5 5 5 5 6 6 7 9 10 10 8 8 8 8 10 7 8 9 12 11 13 12 11 12 11 14 14 15 13 12 13 12 13 12 13 14 13 14 14 14 14 14 14 14 15 16 17
5 5 5 5 5 5 5 5 4 5 5 5 5 6 7 7 7 9 8 9 10 11 11 11 11 10 11 10 11 11 14 12 14 12 14 13 12 12 12 12 12 12 14 14 15 14 15 15 15 14 14 15 15 16
5 5 5 5 5 5 5 5 5 5 6 6 6 6 6 7 6 9 10 10 10 11 12 12 13 12 11 11 11 12 14 13 12 13 14 12 12 11 11 12 12 12 13 13 13 14 14 15 15 15 14 15 15 16
5 6 6 5 5 5 5 5 4 5 5 6 8 5 7 7 8 8 9 10 10 11 11 11 11 12 10 12 11 15 13 13 14 14 14 12 12 12 11 11 12 11 11 11 12 12 13 13 13 14 14 15 14 15
5 6 6 5 5 5 5 5 5 5 5 7 9 9 8 8 8 9 9 9 10 9 10 11 11 11 11 14 12 13 14 15 14 13 13 12 11 10 10 10 9 9 9 9 10 10 11 12 12 12 13 13 14 14
6 5 5 5 5 5 5 5 5 6 6 7 7 8 10 10 10 9 10 10 10 10 10 11 14 13 14 12 14 15 15 14 12 11 10 9 10 9 9 8 9 9 9 9 10 10 10 11 11 12 12 12 13 13
4 4 5 5 5 5 5 5 6 5 7 9 8 8 8 8 9 9 9 10 10 11 12 12 14 15 11 13 14 11 12 11 10 11 9 9 9 8 8 8 9 9 9 10 10 11 11 11 12 12 11 12 12 12
5 5 5 5 5 4 5 5 5 7 8 8 9 8 8 8 9 9 9 9 10 10 11 13 10 14 13 14 12 11 10 9 10 10 8 8 9 9 9 9 9 10 10 10 10 11 11 11 10 10 11 10 10 10
5 5 5 5 6 6 5 5 6 7 8 8 7 7 9 9 9 9 8 9 10 9 9 10 12 10 10 9 10 10 11 10 10 8 8 9 10 9 10 10 10 10 11 11 11 11 11 11 11 11 11 10 10 9
6 6 5 5 6 6 7 6 8 7 8 8 8 9 9 9 9 8 7 7 8 8 10 10 10 9 8 8 7 8 8 8 8 9 8 9 10 10 10 10 10 11 11 11 11 11 11 10 10 10 10 10 10 10
4 4 5 5 6 5 5 6 7 7 7 8 8 9 10 9 10 7 7 5 8 7 9 8 8 7 9 9 9 9 9 8 9 9 9 10 10 10 10 10 10 10 10 10 10 10 10 10 10 10 9 9 9 9
5 5 6 5 5 6 6 8 7 8 8 8 8 9 9 9 7 6 5 7 7 7 6 6 6 6 6 7 8 9 9 9 9 9 10 9 10 10 10 10 10 10 10 10 10 10 10 10 10 10 9 9 9 9
7 6 6 6 6 6 8 10 10 9 10 10 7 9 7 7 6 5 6 6 5 5 7 6 7 7 7 8 8 9 9 9 10 10 10 10 10 10 10 10 10 10 10 9 10 10 9 10 10 10 10 10 10 10
7 7 7 7 6 7 9 9 7 6 7 8 8 9 8 7 5 6 6 6 6 7 8 8 8 8 8 8 9 9 9 10 10 10 10 10 10 10 10 10 10 10 10 10 10 10 11 11 11 11 11 12 12 12
6 7 6 3 7 9 9 8 7 6 7 7 8 7 7 6 8 7 6 7 8 8 8 8 8 9 9 9 9 9 10 10 10 10 11 11 10 10 10 11 11 11 11 12 11 12 12 12 12 12 12 12 12 11
4 8 7 8 6 8 6 7 6 7 7 8 8 7 7 8 8 7 8 8 8 8 9 9 9 9 9 9 9 10 10 11 11 11 12 12 12 12 11 10 11 12 13 13 13 13 12 12 12 12 12 12 12 12
5 8 7 5 6 6 6 5 7 8 8 9 8 8 8 8 8 8 8 8 8 9 9 10 10 10 9 10 11 11 12 12 12 12 13 13 13 14 14 13 12 14 14 14 14 14 14 14 14 14 15 14 14 13
6 6 8 7 6 6 8 8 8 8 9 9 9 9 10 9 9 9 8 9 9 10 10 10 11 11 12 12 12 13 14 14 13 14 14 14 14 14 14 14 15 15 16 16 16 16 16 15 15 16 15 14 14 13
5 6 6 7 7 7 8 9 10 9 9 10 10 9 9 9 9 9 9 10 10 11 12 12 12 12 13 14 14 14 14 14 14 13 12 10 12 14 15 15 15 15 16 16 16 16 16 16 15 15 15 15 14 14
7 7 7 8 8 9 10 9 10 10 10 10 10 9 9 9 9 10 10 11 11 11 11 12 12 13 13 13 14 15 15 15 16 15 11 11 14 16 15 15 15 15 15 15 15 15 15 15 15 14 14 14 13 13
8 7 8 9 10 10 10 10 10 10 11 10 11 11 11 10 12 13 12 12 12 12 12 12 13 13 13 13 13 14 13 15 17 16 17 17 16 16 16 16 16 16 16 16 16 15 15 15 15 14 14 14 14 13
9 9 10 11 10 10 10 10 11 11 12 12 12 11 12 11 12 12 15 15 13 12 13 13 13 14 14 15 15 16 15 15 16 15 16 16 16 16 16 16 16 16 16 16 16 15 15 15 15 14 13 13 13 13
12 12 12 11 11 11 11 10 11 12 11 12 12 12 12 11 12 13 17 17 17 16 16 16 15 16 15 15 16 16 15 15 15 15 16 16 16 16 16 16 16 16 16 16 15 15 14 14 14 13 13 13 12 12